1st Responders/1st Detectors/Storm Spotters Weather Summary for Barren County, KY

Forecast Maps


Reg. NEXRAD Animation


National Fire Danger: Day 1 & 2 Map

Current NWS Watch/Warnings

SPC Convective Day 1 Outlook


Day 2 Outlook

(Click images to enlarge|Page will refresh every 5 minutes)
UK Ag. Weather Center Desktop Severe Weather Service[HERE]
Barren County, KY Hazardous Weather Outlook Webcast
(9 AM to 9 PM Mon-Fri)
[Fast]
[Dial-up]


UKAWC 1st Detectors/1st Responders Precision Weather Forecast For BARREN County, Kentucky
(based on the NWS County Digital Forecast)

ISSUED AT 22:00 UTC ON SUNDAY JUL 22 2018
DAY SUNDAY MONDAY
CDT 3HR 6P 7P 8P 9P 10P 11P MIDN 1A 2A 3A 4A 5A 6A 7A 8A 9A 10A 11A NOON 1P 2P 3P 4P 5P 6P
MAX/MIN 79° -- -- -- -- -- -- -- -- -- -- -- -- 65° -- -- -- -- -- -- -- -- -- -- 81°
TEMP 76° 74° 72° 70° 67° 67° 67° 67° 67° 65° 65° 65° 65° 65° 67° 68° 72° 74° 77° 79° 81° 81° 81° 81° 79°
SKY COVER 89% 91% 89% 88% 87% 88% 88% 89% 88% 87% 87% 88% 90% 92% 92% 91% 91% 87% 84% 81% 77% 74% 70% 68% 65%
Clouds
DEW PT 68° 68° 68° 67° 67° 67° 67° 67° 67° 65° 65° 65° 65° 65° 67° 67° 67° 67° 67° 67° 67° 67° 67° 67° 67°
RH 79% 84% 89% 92% 100% 99% 100% 99% 100% 100% 99% 100% 99% 99% 99% 93% 84% 76% 68% 64% 60% 60% 60% 62% 64%
POP 12HR -- 63% -- -- -- -- -- -- -- -- -- -- -- 42% -- -- -- -- -- -- -- -- -- -- --
RAIN/SNOW (liq.equ) -- 0.14in -- -- -- -- -- 0.01in -- -- -- -- -- 0.00in -- -- -- -- -- 0.00in -- -- -- -- --
SNOWFALL -- 0in -- -- -- -- -- 0in -- -- -- -- -- 0in -- -- -- -- -- 0in -- -- -- -- --
WIND SPEED(MPH) 8 7 7 6 5 5 5 5 5 5 5 5 6 6 6 7 7 7 7 7 7 7 7 7 7
WIND Gust(MPH) 13 10 8 7 7 6 6 7 7 6 7 7 7 7 7 8 8 9 9 10 10 10 10 9 8
WIND DIR NW NW NW NW NW NW NW NW N N N N N N N N N N N N N N N N N
DEW Lgt Dew -- Mod Dew Mod Dew Mod Dew Mod Dew Mod Dew Mod Dew Mod Dew Mod Dew Mod Dew Mod Dew Mod Dew -- -- -- -- Lgt Dew -- -- -- -- -- -- --
HeatIndex 76 74 72 70 67 67 67 67 67 65 65 65 65 65 67 68 72 74 77 82 84 84 84 83 82
Rain Showers Chance Chance Chance Chance Slight Chance Slight Chance Slight Chance Slight Chance -- -- -- -- -- -- -- -- -- -- -- Slight Chance Slight Chance Slight Chance Slight Chance Slight Chance Slight Chance
Thunder Storm Slight Chance Slight Chance -- -- -- -- -- -- -- -- -- -- -- -- -- -- -- -- -- Slight Chance Slight Chance Slight Chance Slight Chance Slight Chance Slight Chance
WIND CHILL -- -- -- -- -- -- -- -- -- -- -- -- -- -- -- -- -- -- -- -- -- -- -- -- --
SPRAY COND
DRY COND
LIVESTOCK HEATSTRESS 74.01 72.66 71.20 69.51 67.00 66.95 67.00 66.95 67.00 65.00 64.97 65.00 64.97 64.97 66.95 67.65 70.84 71.99 73.80 75.00 76.12 76.12 76.12 76.36 75.00



DAY TUESDAY WEDNESDAY THURSDAY FRIDAY SATURDAY SUNDAY
CDT 6HR 7P 8P 9P 10P 11P MIDN 1A 2A 3A 4A 5A 7A 10A 1P 4P 7P 10P 1A 4A 7A 10A 1P 4P 7P 1A 7A 1P 7P 1A 7A 1P 7P 1A 7A 1P 7P 1A 7A 1P 7P
MAX/MIN -- -- -- -- -- -- -- -- -- -- -- 63° -- -- 85° -- -- -- -- 67° -- -- 86° -- -- 67° 88° -- -- 67° 88° -- -- 67° 88° -- -- 67° 86° --
TEMP 77° 76° 74° 70° 68° 67° 67° 65° 65° 63° 63° 67° 79° 85° 85° 81° 74° 70° 67° 68° 79° 86° 85° 81° 70° 70° 88° 81° 70° 68° 86° 81° 70° 68° 86° 81° 70° 70° 85° 79°
SKY COVER 63% 60% 53% 49% 49% 48% 47% 49% 52% 54% 57% 68% 62% 71% 67% 65% 56% 45% 50% 50% 44% 51% 45% 30% 19% 17% 20% 26% 35% 40% 41% 47% 51% 55% 63% 69% 69% 72% 80% 80%
Clouds
DEW PT 67° 67° 67° 67° 67° 65° 65° 65° 65° 63° 63° 65° 67° 67° 67° 70° 68° 67° 67° 67° 70° 70° 70° 70° 67° 67° 67° 68° 67° 67° 67° 67° 65° 65° 67° 68° 68° 67° 70° 68°
RH 69% 73% 78% 87% 93% 93% 96% 100% 99% 100% 100% 96% 68% 56% 56% 69% 84% 93% 99% 97% 73% 56% 59% 66% 93% 93% 51% 65% 90% 93% 51% 63% 83% 89% 53% 67% 96% 93% 58% 69%
POP 12HR 22% -- -- -- -- -- -- -- -- -- -- 10% -- -- -- 30% -- -- -- 14% -- -- -- 31% -- 1% -- 4% -- 5% -- 7% -- 13% -- 37% -- 48% -- 51%
RAIN/SNOW (liq.equ) 0.02in -- -- -- -- -- 0.00in -- -- -- -- 0.00in -- 0.00in -- 0.01in -- 0.00in -- 0.00in -- 0.00in -- 0.02in -- -- -- -- -- -- -- -- -- -- -- -- -- -- -- --
SNOWFALL 0in -- -- -- -- -- 0in -- -- -- -- 0in -- 0in -- 0in -- 0in -- 0in -- 0in -- 0in -- -- -- -- -- -- -- -- -- -- -- -- -- -- -- --
WIND SPEED(MPH) 6 5 5 2 2 1 1 1 1 1 1 1 5 6 7 5 2 1 1 1 6 7 7 5 1 1 6 5 1 1 6 5 2 2 6 2 2 1 6 5
WIND DIR N N N N N N N N N N N N N N N N N N N N N N N N NW W NW NW NW NW NW NW NE E W N SE SW SW S
HeatIndex 77 76 74 70 68 67 67 65 65 63 63 67 79 88 88 84 74 70 67 68 79 92 90 85 70 70 91 85 70 68 89 85 70 68 90 84 70 70 90 82
Rain Showers -- -- -- -- -- -- -- -- -- -- -- Slight Chance Slight Chance Chance Chance -- -- -- -- Slight Chance Slight Chance Chance Chance -- -- -- -- -- -- -- -- -- -- -- Chance Chance Chance Chance Chance Likely
Thunder Storm -- -- -- -- -- -- -- -- -- -- -- -- -- Chance Chance -- -- -- -- Slight Chance Slight Chance Chance Chance -- -- -- -- -- -- -- -- -- -- -- Chance Slight Chance Slight Chance Slight Chance Slight Chance Slight Chance
WIND CHILL -- -- -- -- -- -- -- -- -- -- -- -- -- -- -- -- -- -- -- -- -- -- -- -- -- -- -- -- -- -- -- -- -- -- -- -- -- -- -- --
SPRAY COND
DRY COND
LIVESTOCK HEATSTRESS 73.90 73.45 72.16 69.20 67.65 66.68 66.82 65.00 64.97 63.00 63.00 66.82 75.44 78.66 78.66 77.21 72.66 69.57 66.95 67.85 76.00 79.42 79.09 76.85 69.57 69.57 80.13 76.73 69.38 67.65 78.67 76.48 68.95 67.44 78.97 76.97 69.75 69.57 78.95 75.56

Click on individual weather variable above in left-hand column (ie., TEMP, RH, QPF 12HR) to view state forecast maps






NWS 48 Hr. Forecast Maps,

Regional Hourly Observations For BARREN County, Kentucky
Issued at 600 PM EDT SUN JUL 22 2018
WESTERN AND SOUTH CENTRAL KENTUCKY
  
CITY           SKY/WX    TMP DP  RH WIND       PRES   REMARKS
PADUCAH        PTSUNNY   83  67  58 NW14G26   29.81S                  
HENDERSON      LGT RAIN  73  70  90 VRB6      29.80R                  
OWENSBORO      TSTM      74  70  87 NW16G24   29.78R                  
HOPKINSVILLE   FAIR      76  67  76 NW7       29.79R                  
BOWLING GREEN  CLOUDY    78  69  73 NW9G22    29.76F                  
GLASGOW        LGT RAIN  72  68  87 W3        29.76S                  


Current NOWCAST not available:
Nowcasts are not issued routinely during fair weather. Only when
precipitation or other significant weather is occuring in this county will these
forecasts be issued. Currently, there is no short term forecast in effect.


Fire Weather Forecast For BARREN County, KY
Provided by the National Weather Service:

Issued at: Sun Jul 22 18:05:01 EDT 2018

404 AM EDT Sun Jul 22 2018 /304 AM CDT Sun Jul 22 2018/

                      Today        Tonight      Mon          

CLOUD COVER           MCldy        MCldy        MCldy        
PRECIP TYPE           tstms        tstms        tstms        
CHANCE PRECIP (%)     50           50           20           
TEMP (24H TREND)      81 (-3)      65 (-2)      84           
RH % (24H TREND)      64 (+7)      100 (+5)     56           
20FTWND-VAL/AM(MPH)   W  6                      N  5         
20FTWND-RDG/PM(MPH)   NW  7        NW  5        N  6         
PRECIP AMOUNT         0.17         0.07         0.01         
MIXING HGT(FT-AGL/MSL)3775                      5157         
TRANSPORT WND (MPH)   NW 15                     N 13         
VENT RATE (KT-FT)     56280                     78822        
DISPERSION            Good                      Good         
DSI                   SLGT UNSTBL  SLGT UNSTBL  STBL         
LAL                   2            2            3            
HAINES INDEX          3            3            3            
ADI EARLY             27 FAIR      13 GEN POOR  15 GEN POOR  
ADI LATE              38 FAIR      3 VERY POOR  35 FAIR      
MAX LVORI EARLY       6            7            8            
MAX LVORI LATE        3            9            3            

REMARKS...ADI IS ATMOSPHERIC DISPERSION INDEX BY LAVDAS.        
LVORI IS LOW VISIBILITY OCCURRENCE RISK INDEX.

.TUESDAY...Mostly cloudy. A 50 percent chance of showers and
thunderstorms. Lows in the mid 60s. Highs in the mid 80s. Light
winds. 
.WEDNESDAY...Mostly cloudy. A 50 percent chance of showers and
thunderstorms. Lows in the upper 60s. Highs in the upper 80s.
North winds up to 5 mph. 
.THURSDAY...Mostly clear. Lows in the upper 60s. Highs in the
upper 80s. Northwest winds up to 5 mph. 
.FRIDAY...Partly cloudy. Chance of showers. Lows in the upper
60s. Highs in the upper 80s. Northwest winds up to 5 mph. 
.SATURDAY...Mostly cloudy. Chance of showers. Lows in the mid
60s. Highs in the mid 80s. Northwest winds up to 5 mph. 

SPC's Fire Weather Web Tool (Excellent!), SPC's Fire Weather Outlooks, NWS Fire Weather WEB, Fire Danger Class Map,
Keetch-Byram Drought Index, ROMAN Web, Haines Index ,
WFAS's 10-hr Dead Fuel Moist., WFAS's 100-hr Dead Fuel Moist., Probablity of Ignition, Visual blackness Map, Palmer Drought Index, HPC's Rainfall Forecast Maps


Hazardous Weather Outlook For BARREN County, Kentucky
305 PM EDT Sun Jul 22 2018 /205 PM CDT Sun Jul 22 2018/

 DAY ONE  Tonight.

No hazardous weather is expected. 

 DAYS TWO THROUGH SEVEN  Monday through Saturday.

Isolated to scattered afternoon and evening storms are expected most
of next week as the weather pattern remains unsettled.

 SPOTTER INFORMATION STATEMENT  

Spotter activation is not anticipated.

Latest BARREN County, Kentucky Watches, Warnings and Advisories.
Additional Drought Info.: UKAWC Drought Page, Kentucky Drought Watch


7-Day Forecast For BARREN County, KY

TONIGHT
Cloudy. Chance of showers and slight chance of thunderstorms in the evening, then slight chance of showers after midnight. Lows in the mid 60s. Northwest winds 5 to 10 mph. Chance of precipitation 50 percent.

MONDAY
Mostly cloudy with a 20 percent chance of showers and thunderstorms. Highs in the lower 80s. North winds 5 to 10 mph.

MONDAY NIGHT
Partly cloudy. Lows in the mid 60s. North winds up to 5 mph.

TUESDAY
Partly cloudy with a 40 percent chance of showers and thunderstorms. Highs in the mid 80s. North winds up to 5 mph.

TUESDAY NIGHT
Partly cloudy with a 20 percent chance of showers. Lows in the upper 60s. North winds up to 5 mph.

WEDNESDAY
Partly cloudy with a 30 percent chance of showers and thunderstorms. Highs in the upper 80s.

WEDNESDAY NIGHT
Mostly clear. Lows in the upper 60s.

THURSDAY
Mostly sunny. Highs in the upper 80s.

THURSDAY NIGHT
Partly cloudy. Lows in the upper 60s.

FRIDAY
Partly cloudy. Highs in the upper 80s.

FRIDAY NIGHT
Partly cloudy. Lows in the upper 60s.

SATURDAY
Partly cloudy with a 40 percent chance of showers and thunderstorms. Highs in the upper 80s.

SATURDAY NIGHT
Mostly cloudy with chance of showers and slight chance of thunderstorms. Lows in the upper 60s. Chance of precipitation 50 percent.

SUNDAY
Mostly cloudy with chance of showers and slight chance of thunderstorms. Highs in the mid 80s. Chance of precipitation 50 percent.

Ag Weather Center, Department of Biosystems & Agricultural Engineering, University of Kentucky